Lancaster, OH

11:55 PM EDT on June 25, 2017 (GMT -0400)
Fairfield County

Weather History for KLHQ - August, 2012

Change the Weather History Date:

Saturday, August 4, 2012

  Actual Average Record
Temperature  
Mean Temperature 80 °F -  
Max Temperature 91 °F 83 °F 98 °F (1955)
Min Temperature 69 °F 60 °F 46 °F (1966)
Cooling Degree Days 14    
Growing Degree Days 30 (Base 50)    
Moisture  
Dew Point 70 °F    
Average Humidity 77    
Maximum Humidity 100    
Minimum Humidity 55    
Precipitation  
Precipitation 0.31 in - - ()
Sea Level Pressure  
Sea Level Pressure 30.01 in    
Wind  
Wind Speed 8 mph (SSE)    
Max Wind Speed 16 mph    
Max Gust Speed 20 mph    
Visibility 9 miles    
Events Rain    
Averages and records for this station are not official NWS values.
T = Trace of Precipitation, MM = Missing Value Source: NWS Daily Summary

Daily Weather History Graph

Daily Weather History Graph

Search for Another Location

Airport or City:

Trip Planner

Search our weather history database for the weather conditions in past years. The results will help you decide how hot, cold, wet, or windy it might be!

Date:

Astronomy

Aug. 04, 2012 Rise Set
Actual Time 6:32 AM EDT 8:39 PM EDT
Civil Twilight 6:02 AM EDT 9:09 PM EDT
Nautical Twilight 5:26 AM EDT 9:46 PM EDT
Astronomical Twilight 4:46 AM EDT 10:25 PM EDT
Moon 9:48 PM EDT (8/4) 9:18 AM EDT (8/4)
Length of Visible Light 15h 06m
Length of Day
14h 07m
Waning Gibbous, 92% of the Moon is Illuminated
Aug 4
Waning Gibbous
Aug 9
Last Quarter
Aug 17
New
Aug 24
First Quarter
Aug 31
Full

Hourly Weather History & Observations

Time (EDT) Temp. Heat Index Dew Point Humidity Pressure Visibility Wind Dir Wind Speed Gust Speed Precip Events Conditions
12:53 AM 73.0 °F - 64.9 °F 76% 29.99 in 10.0 mi SE 5.8 mph - N/A   Clear
1:53 AM 73.0 °F - 64.9 °F 76% 29.99 in 10.0 mi SE 9.2 mph - N/A   Scattered Clouds
2:53 AM 72.0 °F - 64.9 °F 78% 29.99 in 10.0 mi SE 4.6 mph - N/A   Scattered Clouds
3:53 AM 73.0 °F - 64.9 °F 76% 29.99 in 10.0 mi SE 5.8 mph - N/A   Overcast
4:53 AM 72.0 °F - 66.9 °F 84% 30.01 in 7.0 mi SSE 10.4 mph - 0.00 in Rain Light Rain
5:06 AM 69.8 °F - 68.0 °F 94% 30.02 in 1.2 mi SE 10.4 mph - 0.20 in Rain Heavy Rain
5:17 AM 69.8 °F - 68.0 °F 94% 30.03 in 2.5 mi SSE 6.9 mph - 0.28 in Rain Rain
5:24 AM 69.8 °F - 69.8 °F 100% 30.03 in 6.0 mi South 5.8 mph - 0.28 in Rain Light Rain
5:53 AM 70.0 °F - 68.0 °F 93% 30.01 in 8.0 mi SSE 5.8 mph - 0.30 in   Overcast
6:25 AM 71.6 °F - 68.0 °F 88% 30.04 in 6.0 mi SE 6.9 mph - 0.00 in Rain Light Rain
6:32 AM 71.6 °F - 68.0 °F 88% 30.03 in 6.0 mi SE 5.8 mph - 0.00 in Rain Light Rain
6:53 AM 71.1 °F - 68.0 °F 90% 30.01 in 7.0 mi SE 4.6 mph - 0.00 in Rain Light Rain
7:53 AM 71.1 °F - 68.0 °F 90% 30.03 in 8.0 mi SSE 5.8 mph - N/A   Scattered Clouds
8:40 AM 71.6 °F - 68.0 °F 88% 30.07 in 9.0 mi SSE 5.8 mph - N/A   Mostly Cloudy
8:53 AM 72.0 °F - 68.0 °F 87% 30.04 in 9.0 mi SSE 5.8 mph - N/A   Mostly Cloudy
9:53 AM 77.0 °F - 70.0 °F 79% 30.03 in 10.0 mi South 11.5 mph - N/A   Mostly Cloudy
10:05 AM 78.8 °F - 71.6 °F 78% 30.05 in 10.0 mi South 11.5 mph - N/A   Scattered Clouds
10:53 AM 79.0 °F - 71.1 °F 77% 30.03 in 10.0 mi SSW 6.9 mph - N/A   Clear
11:53 AM 82.0 °F 87.4 °F 73.0 °F 74% 30.01 in 10.0 mi South 5.8 mph - N/A   Partly Cloudy
12:42 PM 84.2 °F 90.9 °F 73.4 °F 70% 30.03 in 10.0 mi South 9.2 mph 16.1 mph 0.01 in   Mostly Cloudy
12:53 PM 84.0 °F 90.2 °F 73.0 °F 69% 30.01 in 10.0 mi SSE 10.4 mph - 0.01 in   Scattered Clouds
2:53 PM 88.0 °F 94.7 °F 72.0 °F 59% 29.99 in 10.0 mi SSW 10.4 mph 19.6 mph N/A   Mostly Cloudy
3:53 PM 90.0 °F 96.9 °F 72.0 °F 55% 29.95 in 10.0 mi South 12.7 mph - N/A   Scattered Clouds
4:53 PM 90.0 °F 96.9 °F 72.0 °F 55% 29.94 in 10.0 mi South 16.1 mph - N/A   Partly Cloudy
5:53 PM 89.1 °F 95.0 °F 71.1 °F 55% 29.95 in 10.0 mi South 13.8 mph - N/A   Partly Cloudy
6:53 PM 88.0 °F 94.7 °F 72.0 °F 59% 29.96 in 10.0 mi South 11.5 mph - N/A   Clear
7:53 PM 84.0 °F 89.0 °F 71.1 °F 65% 29.98 in 10.0 mi South 13.8 mph 18.4 mph N/A   Scattered Clouds
8:53 PM 81.0 °F 84.9 °F 71.1 °F 72% 29.98 in 10.0 mi South 8.1 mph - N/A   Clear
9:53 PM 81.0 °F 84.9 °F 71.1 °F 72% 30.01 in 10.0 mi SSW 6.9 mph - N/A   Clear
10:53 PM 80.1 °F 83.8 °F 72.0 °F 76% 30.01 in 10.0 mi South 8.1 mph - N/A   Clear
11:53 PM 79.0 °F - 72.0 °F 79% 30.01 in 10.0 mi South 6.9 mph - N/A   Clear